SWR18L LFMN-LSGG

Flight info

Callsign SWR18L
Flight time N/A
Altitude 24000
Route IRMAR DCT KINES
Aircraft A320/M-SDE3FGHIRWY/LB1

Departure

Time 2026-05-07 19:59
Airport Nice-Côte d'Azur Airport (LFMN)

Arrival

Time N/A
Airport Geneva International Airport (LSGG)
Time Latitude Longitude Altitude Speed Heading
2026-05-07 19:27 43.66510 7.21531 25 ft 0 kts 316°
2026-05-07 19:45 43.66507 7.21535 22 ft 3 kts 316°
2026-05-07 19:45 43.66487 7.21560 23 ft 4 kts 316°
2026-05-07 19:46 43.66471 7.21588 22 ft 4 kts 284°
2026-05-07 19:46 43.66473 7.21619 22 ft 4 kts 229°
2026-05-07 19:46 43.66477 7.21625 26 ft 0 kts 225°
2026-05-07 19:50 43.66474 7.21621 22 ft 3 kts 225°
2026-05-07 19:50 43.66451 7.21589 24 ft 6 kts 225°
2026-05-07 19:51 43.66394 7.21534 23 ft 14 kts 184°
2026-05-07 19:51 43.66309 7.21605 23 ft 15 kts 167°
2026-05-07 19:51 43.66228 7.21523 22 ft 14 kts 225°
2026-05-07 19:51 43.66158 7.21428 22 ft 14 kts 225°
2026-05-07 19:52 43.66076 7.21315 22 ft 19 kts 225°
2026-05-07 19:52 43.65976 7.21179 22 ft 21 kts 225°
2026-05-07 19:52 43.65872 7.21034 22 ft 13 kts 224°
2026-05-07 19:52 43.65818 7.20961 22 ft 10 kts 224°
2026-05-07 19:53 43.65772 7.20900 22 ft 9 kts 218°
2026-05-07 19:53 43.65710 7.20887 24 ft 9 kts 171°
2026-05-07 19:53 43.65699 7.20890 23 ft 0 kts 171°
2026-05-07 19:54 43.65695 7.20891 22 ft 4 kts 171°
2026-05-07 19:54 43.65621 7.20907 22 ft 13 kts 171°
2026-05-07 19:54 43.65528 7.20928 22 ft 14 kts 171°
2026-05-07 19:54 43.65430 7.20950 24 ft 16 kts 171°
2026-05-07 19:55 43.65327 7.20928 23 ft 16 kts 223°
2026-05-07 19:55 43.65246 7.20815 22 ft 18 kts 227°
2026-05-07 19:55 43.65151 7.20685 22 ft 20 kts 225°
2026-05-07 19:55 43.65049 7.20544 22 ft 21 kts 225°
2026-05-07 19:56 43.64939 7.20393 22 ft 23 kts 225°
2026-05-07 19:56 43.64822 7.20232 22 ft 23 kts 225°
2026-05-07 19:56 43.64755 7.20188 22 ft 0 kts 172°
2026-05-07 19:57 43.64743 7.20197 24 ft 4 kts 143°
2026-05-07 19:58 43.64722 7.20220 22 ft 4 kts 133°
2026-05-07 19:58 43.64707 7.20280 22 ft 13 kts 82°
2026-05-07 19:58 43.64873 7.20524 22 ft 69 kts 45°
2026-05-07 19:58 43.65361 7.21197 25 ft 129 kts 45°
2026-05-07 19:59 43.66092 7.22202 257 ft 153 kts 45°
2026-05-07 19:59 43.66815 7.23269 882 ft 154 kts 62°
2026-05-07 19:59 43.66853 7.24690 1406 ft 158 kts 117°
2026-05-07 19:59 43.66077 7.25867 1748 ft 178 kts 139°
2026-05-07 20:00 43.65105 7.27086 2043 ft 199 kts 136°
2026-05-07 20:00 43.64051 7.28470 2466 ft 215 kts 136°
2026-05-07 20:00 43.62968 7.29922 3132 ft 219 kts 135°
2026-05-07 20:00 43.61817 7.31301 3905 ft 221 kts 152°
2026-05-07 20:01 43.60358 7.31862 4630 ft 224 kts 179°
2026-05-07 20:01 43.58848 7.31399 5370 ft 227 kts 208°
2026-05-07 20:01 43.57690 7.29931 6072 ft 231 kts 239°
2026-05-07 20:01 43.57231 7.27819 6744 ft 234 kts 270°
2026-05-07 20:02 43.57579 7.25625 7405 ft 238 kts 290°
2026-05-07 20:02 43.58155 7.23476 8108 ft 240 kts 290°
2026-05-07 20:02 43.58739 7.21306 8811 ft 243 kts 290°
2026-05-07 20:02 43.59328 7.19106 9523 ft 246 kts 290°
2026-05-07 20:03 43.59917 7.16883 10194 ft 248 kts 290°
2026-05-07 20:03 43.60615 7.14693 10846 ft 251 kts 302°
2026-05-07 20:03 43.61778 7.12896 11495 ft 255 kts 321°
2026-05-07 20:03 43.63400 7.11671 11759 ft 279 kts 341°
2026-05-07 20:04 43.65328 7.10835 12005 ft 302 kts 342°
2026-05-07 20:04 43.67413 7.09934 12241 ft 326 kts 342°
2026-05-07 20:04 43.69636 7.08966 12635 ft 341 kts 342°
2026-05-07 20:04 43.71920 7.07964 13313 ft 347 kts 341°
2026-05-07 20:05 43.74237 7.06943 14002 ft 352 kts 341°
2026-05-07 20:05 43.76581 7.05907 14659 ft 356 kts 341°
2026-05-07 20:05 43.78948 7.04856 15318 ft 359 kts 341°
2026-05-07 20:05 43.81335 7.03790 15976 ft 362 kts 341°
2026-05-07 20:06 43.83743 7.02716 16637 ft 365 kts 341°
2026-05-07 20:06 43.86173 7.01637 17309 ft 369 kts 341°
2026-05-07 20:06 43.88631 7.00546 17957 ft 372 kts 340°
2026-05-07 20:06 43.91106 6.99443 18546 ft 376 kts 340°
2026-05-07 20:07 43.93608 6.98326 19103 ft 379 kts 340°
2026-05-07 20:07 43.96122 6.97199 19669 ft 382 kts 340°
2026-05-07 20:07 43.98662 6.96060 20222 ft 385 kts 339°
2026-05-07 20:07 44.01217 6.94918 20787 ft 387 kts 339°
2026-05-07 20:08 44.03791 6.93772 21366 ft 390 kts 339°
2026-05-07 20:08 44.06384 6.92615 21907 ft 393 kts 339°
2026-05-07 20:08 44.08958 6.91462 22481 ft 395 kts 339°
2026-05-07 20:08 44.11583 6.90281 23052 ft 398 kts 338°
2026-05-07 20:09 44.14257 6.89182 23546 ft 403 kts 344°
2026-05-07 20:09 44.17053 6.88612 23919 ft 409 kts 350°
2026-05-07 20:09 44.19877 6.88198 24015 ft 405 kts 350°
2026-05-07 20:10 44.25319 6.87404 24040 ft 388 kts 350°
2026-05-07 20:10 44.27995 6.87000 24040 ft 386 kts 350°
2026-05-07 20:10 44.30663 6.86592 24037 ft 386 kts 350°
2026-05-07 20:10 44.33334 6.86179 24038 ft 386 kts 349°
2026-05-07 20:11 44.36000 6.85770 24039 ft 386 kts 350°
2026-05-07 20:11 44.38671 6.85365 24038 ft 386 kts 350°
2026-05-07 20:11 44.41340 6.84962 24039 ft 386 kts 351°
2026-05-07 20:11 44.44012 6.84557 24033 ft 386 kts 350°
2026-05-07 20:12 44.46688 6.84149 24036 ft 387 kts 350°
2026-05-07 20:12 44.49364 6.83737 24032 ft 387 kts 350°
2026-05-07 20:12 44.52045 6.83325 24031 ft 387 kts 350°
2026-05-07 20:12 44.54723 6.82914 24029 ft 387 kts 350°
2026-05-07 20:13 44.57405 6.82507 24031 ft 387 kts 351°
2026-05-07 20:13 44.60051 6.82108 24027 ft 387 kts 350°
2026-05-07 20:13 44.62761 6.81698 24025 ft 387 kts 350°
2026-05-07 20:13 44.65404 6.81296 24027 ft 387 kts 350°
2026-05-07 20:14 44.68118 6.80880 24028 ft 387 kts 350°
2026-05-07 20:14 44.70797 6.80467 24028 ft 387 kts 350°
2026-05-07 20:14 44.73437 6.80061 24022 ft 386 kts 350°
2026-05-07 20:14 44.76111 6.79648 24023 ft 387 kts 350°
2026-05-07 20:15 44.78787 6.79234 24021 ft 387 kts 350°